GSAT0205 (PRN E24)

Last updated on Sun Jul 21 2024 00:03:08 GMT+0000 (Coordinated Universal Time)

1 40889U 15045A 24201.78708525 .00000083 00000+0 00000+0 0 9994 2 40889 55.2034 240.8691 0003050 338.7535 21.3328 1.70473600 55122
UTC large
Height (km)
Speed (km/s)
/
Latitude / Longitude
Inclination (degrees)
Orbital Period (minutes)
Azimuth
Elevation
Range (km)
Doppler Factor

Next 0 passes for location: London (51.5072 / 0.1276)

Sorry there are no passes over London.